Content
SEND FEEDBACK

Daily
Averages
Monthly
Summary
United States of America

MALDEN, MISSOURI


Home > North America > United States > Missouri
Elevation: 295 feet     Latitude: 36 36N     Longitude: 089 59W

WEATHER
 
SELECT A DAY
Number of Records: 210,118;   Date Range: 1/1/95 - 9/28/14
 
SHARE

PRINT THIS DATA

[ ← Previous Day ]
WEATHER ALMANAC - NOVEMBER 5, 2013
[ Next Day → ]
[ °C ]   °F
Weather ElementAverageHighLow
Temperature58.6 °F64.9 °F (11:53 am)52 °F (1:53 am)
Dewpoint48.9 °F52 °F (8:53 pm)46.9 °F (1:53 pm)
Humidity71.2 %89 % (1:53 am)54 % (11:53 am)
Barometer30.19 in30.30 in (7:53 am)30.09 in (7:53 pm)
Wind Speed4.9 mph11.5 mph (10:53 am)
Weather ElementAverage
Visibility9.4 mi
Wind DirectionESE (100 °)

Weather ElementTotal
Precipitation---
Heating Degree Days6.6 (Base 65)
Growing Degree Days8.5 (Base 50)
Averaged from 23 records on November 5, 2013
WEATHER CONDITIONS BREAKOUT
WIND DIRECTION BREAKOUT
WEATHER BY HOUR - NOVEMBER 5, 2013
[ °C ]   °F
Local TimeTemperatureDewpointHumidityBarometerVisibilityWind DirectionWind SpeedGust SpeedPrecipitationEventsConditions
1:53 AM52.0 °F48.9 °F89 %30.24 in7.0 miNE (40°)4.6 mphClear
2:53 AM52.0 °F48.9 °F89 %30.25 in6.0 miCalmScattered Clouds
3:53 AM52.0 °F48.0 °F86 %30.23 in9.0 miEast (80°)4.6 mphOvercast
4:53 AM52.0 °F48.9 °F89 %30.24 in9.0 miCalmOvercast
5:53 AM52.0 °F48.9 °F89 %30.25 in8.0 miCalmOvercast
6:53 AM52.0 °F48.9 °F89 %30.27 in8.0 miCalmOvercast
7:53 AM55.0 °F48.9 °F80 %30.30 in10.0 miSSE (160°)3.5 mphOvercast
8:53 AM57.0 °F48.9 °F74 %30.28 in10.0 miSSE (150°)6.9 mphScattered Clouds
9:53 AM59.0 °F48.0 °F67 %30.27 in10.0 miSE (140°)8.1 mphMostly Cloudy
10:53 AM62.1 °F48.0 °F60 %30.25 in10.0 miSSE (150°)11.5 mphClear
11:53 AM64.9 °F48.0 °F54 %30.23 in10.0 miSouth (170°)8.1 mphMostly Cloudy
12:53 PM63.0 °F48.0 °F58 %30.20 in10.0 miSSE (150°)9.2 mphOvercast
1:53 PM62.1 °F46.9 °F58 %30.18 in10.0 miSSE (160°)4.6 mphOvercast
2:53 PM62.1 °F46.9 °F58 %30.16 in10.0 miSE (140°)8.1 mphOvercast
3:53 PM61.0 °F46.9 °F60 %30.15 in10.0 miESE (120°)3.5 mphOvercast
4:53 PM60.1 °F48.0 °F64 %30.14 in10.0 miCalmOvercast
5:53 PM59.0 °F50.0 °F72 %30.13 in10.0 miCalmOvercast
6:53 PM59.0 °F48.9 °F69 %30.12 in10.0 miCalmOvercast
7:53 PM57.9 °F50.0 °F75 %30.09 in10.0 miSSE (150°)4.6 mphMostly Cloudy
8:53 PM64.0 °F52.0 °F65 %30.10 in10.0 miSSE (160°)11.5 mphOvercast
9:53 PM63.0 °F51.1 °F65 %30.12 in10.0 miSouth (170°)6.9 mphOvercast
10:53 PM63.0 °F51.1 °F65 %30.11 in10.0 miSouth (180°)9.2 mphOvercast
11:53 PM63.0 °F50.0 °F63 %30.10 in10.0 miSouth (180°)8.1 mph0.00 inRainLight Rain
Hourly data recorded from KPOF, located miles away from Malden, Missouri







STORIES FROM OUR PARTNERS